ATLAS 5 CENTAUR DEB, 44680

Orbit data source: Space-Track

ATLAS 5 CENTAUR DEB, 44680 is space debris in HEO originally from a launch on Wed, 17 Oct 2018 UTC launched from the Air Force Eastern Test Range (AFETR). Debris objects in space refer to the collection of defunct objects orbiting the Earth. Examples of debris include non-operational satellites, rocket bodies, and fragments generated from explosions, collisions, or faulty payload assembly.

Loading next visibility...
Identifier
44680, 2018-079AS
Orbit
HEO
Country
Flag of USUS
Related business
Flag of USUnited Launch Alliance/Lockheed Martin (US)
Manufacturer
ULA Decatur
Mission
Spacecraft
Bus & Motor
Unknown
Mass
Unknown
Launch date (UTC)
2018-10-17 (7 years ago)
Launch vehicle
Unknown
Launch site
Air Force Eastern Test Range (AFETR)
Object type
Payload
Rocket body
Debris
Shape & HBR
Unknown shape, 1.1 m
Radar Cross Section
RCS unknown

Expand to show TLE details & history
Last TLE update: 2 days ago

TLE from 2 days ago
0 ATLAS 5 CENTAUR DEB
1 44680U 18079AS  25296.36152402 -.00000069  00000-0  00000-0 0  9990
2 44680  13.0452  67.4738 4695420 246.5983  58.2089  1.75589709 41302
Epoch: 2025-10-23T08:40Z
TLE epoch observation values (Epoch: 2025-10-23T08:40:35.675Z)
Latitude
-0°
Longitude
-94.78558°
Altitude
21,417.415 km
Speed
3.866 km/s
True Right ascension
04h 29m 32s
True Declination
0° 00' 00"
Sunlit
Object was in daylight at epoch
Visualization orbit readout
Latitude
Unknown
Longitude
Unknown
Altitude
Unknown
Speed
Unknown
Apparent Right ascension
Unknown
Apparent Declination
Unknown
Sunlit
N/A
Visualization observer readout
Local Sidereal Time
06:25:12
Azimuth
Unknown
Elevation
Unknown
Doppler factor
Unknown
Orbital elements
Apogee altitude
36,274.761 km
Perigee altitude
9,018.205 km
Semi-major axis
29,024.62 km
Eccentricity
0.46954
Inclination
13.0452°
RAAN
67.4738°
Arg. of periapsis
246.5983°
True anomaly
113.50602°
Mean anomaly
58.2089°
Eccentric anomaly
85.0097°
Mean motion
0.43893 °/min
Orbital period
820.18 mins
BSTAR
0
Loading maneuver chart data...
Computing Atmospheric mass density...

Documentation

Showing up to 5 results
|